STARLINK-32707, 62478

Orbit data source: Space-Track

STARLINK-32707, 62478 is a payload satellite owned by SpaceX/Seattle (US) in LEO that was launched on Tue, 31 Dec 2024 UTC via an FALCON 9 launch vehicle from the Air Force Eastern Test Range (AFETR). Payload-class satellites include a variety of spacecraft equipped with specific instruments for various scientific and technological missions. These include communications satellites like Starlink; space stations such as the ISS; scientific satellites like the Hubble; Earth observation satellites from companies like Planet Labs, Umbra, and HawkEye 360; GPS; miniature CubeSats for education and research; and military/defense satellites.

Loading next visibility...
Identifier
62478, 2024-254S
Orbit
LEO
Last TLE update
12 hours ago
Origin
Manufacturer
SpaceX/Seattle
Mission
Operational Commercial Communications
Bus & Motor
STARLINK V2M, Unknown motor
Mass
730 kg wet, ~700 kg dry
Launch date (UTC)
2024-12-31 (6 months ago)
Launch vehicle
FALCON 9
Launch site
Air Force Eastern Test Range (AFETR)
Object type
Payload
Rocket body
Debris
Shape & HBR
Box + 2 Pan, 29 m
Radar Cross Section
33.884 m², Large (>1 m²)

Expand to show TLE details & history

TLE from 12 hours ago
0 STARLINK-32707
1 62478U 24254S   25181.56467404  .00023823  00000-0  87182-3 0  9994
2 62478  43.0040   0.2427 0002389 282.2219  77.8365 15.27601984 29092
Epoch: 2025-06-30T13:33Z
TLE epoch observation values (Epoch: 2025-06-30T13:33:07.837Z)
Latitude
-0.00001°
Longitude
-121.91262°
Altitude
482.414 km
Speed
7.626 km/s
True Right ascension
00h 00m 58s
True Declination
0° 00' 00"
Sunlit
Object was in daylight at epoch
Visualization orbit readout
Latitude
-23.60131°
Longitude
-152.59868°
Altitude
487.283 km
Speed
7.623 km/s
Apparent Right ascension
23h 31m 37s
Apparent Declination
-34° 14' 40"
Sunlit
Object is in full shadow
Visualization observer readout
Local Sidereal Time
13:34:04
Azimuth
86.614° E
Elevation
-65.059°
Doppler factor
1
Orbital elements
Apogee altitude
486.567 km
Perigee altitude
483.288 km
Semi-major axis
6,863.065 km
Eccentricity
0.00024
Inclination
43.004°
RAAN
0.2427°
Arg. of periapsis
282.2219°
True anomaly
Unknown
Mean anomaly
77.8365°
Eccentric anomaly
Unknown
Mean motion
3.81739 °/min
Orbital period
94.31 mins
BSTAR
0.00087182
Loading maneuver chart data...
Loading SW <> Apogee altitude chart data...
Loading historical data...
Loading historical data...
Loading historical data...
Loading historical data...
Loading historical data...
Loading historical data...
Loading historical data...

STARLINK-32707 Visibility forecast

Observer location: undefined°, undefined°

Span
Click to sort rows by Start time (UTC) header in descending order
Start Az.
Max El. time (UTC)
Max El. Az.
Max El.
End time (UTC)
End Az.
6 mins2025-07-01 14:51:00.816Z212.786° SW2025-07-01 14:54:00.816Z160.465° S27.45°2025-07-01 14:57:00.816Z90.601° ESE
5 mins2025-07-01 16:31:00.816Z263.826° W2025-07-01 16:33:00.816Z326.648° NNW43.621°2025-07-01 16:36:00.816Z69.279° E
5 mins2025-07-01 18:10:00.816Z292.832° NW2025-07-01 18:12:00.816Z343.556° N37.649°2025-07-01 18:15:00.816Z76.532° E
6 mins2025-07-01 19:49:00.816Z285.225° WNW2025-07-01 19:51:00.816Z261.545° W42.799°2025-07-01 19:55:00.816Z114.788° SE
|